Location: Red Deer
(52.2681°N, 113.8112°W)
Time: 19:01:20
(UTC-07:00)

Tiangong - Visible Passes

Search period start: 26 November 2022 00:00
Search period end: 06 December 2022 00:00
Orbit: 387 x 394 km, 41.5° (Epoch: 26 November)

Date Brightness Start Highest point End Pass type
(mag) Time Alt. Az. Time Alt. Az. Time Alt. Az.
02 Dec 0.9 19:04:27 10° SSW 19:04:39 10° S 19:04:39 10° S visible
03 Dec 0.7 18:07:47 10° S 18:07:57 10° SSE 18:08:06 10° SSE visible
04 Dec 0.5 18:44:52 10° SSW 18:46:18 12° S 18:46:31 12° S visible
05 Dec 0.6 17:47:17 10° SSW 17:48:32 12° S 17:49:45 10° SSE visible
